Weather History for Baton Rouge, LA

Change the Weather History Date:

Thursday, April 18, 2013

  Actual Average Record
Temperature  
Mean Temperature 71 °F 69 °F  
Max Temperature 86 °F 80 °F 93 °F (2006)
Min Temperature 55 °F 57 °F 38 °F (1997)
Degree Days  
Heating Degree Days 0 1  
Month to date heating degree days 41 42  
Since 1 July heating degree days 1489 1544  
Cooling Degree Days 6 5  
Month to date cooling degree days 77 70  
Year to date cooling degree days 121 159  
Growing Degree Days 20 (Base 50)    
Moisture  
Dew Point 68 °F    
Average Humidity 81    
Maximum Humidity 100    
Minimum Humidity 61    
Precipitation  
Precipitation 0.29 in 0.15 in 2.40 in (1901)
Month to date precipitation 4.29 2.77  
Year to date precipitation 29.24 17.94  
Snow  
Snow 0.00 in - - ()
Month to date snowfall 0.0  
Since 1 July snowfall 0.0  
Snow Depth 0.00 in    
Sea Level Pressure  
Sea Level Pressure 29.84 in    
Wind  
Wind Speed 15 mph (SSE)    
Max Wind Speed 26 mph    
Max Gust Speed 35 mph    
Visibility 9 miles    
Events Rain    
T = Trace of Precipitation, MM = Missing Value Source: NWS Daily Summary

Daily Weather History Graph

Daily Weather History Graph

Search for Another Location

Airport:

Trip Planner

Search our weather history database for the weather conditions in past years. The results will help you decide how hot, cold, wet, or windy it might be!

Date:

Astronomy

Apr. 18, 2013 Rise Set
Actual Time 6:33 AM CDT 7:34 PM CDT
Civil Twilight 6:08 AM CDT 7:59 PM CDT
Nautical Twilight 5:39 AM CDT 8:28 PM CDT
Astronomical Twilight 5:09 AM CDT 8:59 PM CDT
Moon 12:50 PM CDT (4/18) 1:43 AM CDT (4/18)
Length of Visible Light 13h 50m
Length of Day
13h 00m
First Quarter, 52% of the Moon is Illuminated
Apr 18
First Quarter
Apr 25
Full
May 2
Last Quarter
May 9
New
May 17
First Quarter

Hourly Weather History & Observations

Time (CDT) Temp. Heat Index Dew Point Humidity Pressure Visibility Wind Dir Wind Speed Gust Speed Precip Events Conditions
12:53 AM 75.0 °F - 69.1 °F 82% 29.91 in 10.0 mi SE 16.1 mph 20.7 mph N/A   Mostly Cloudy
1:53 AM 75.0 °F - 69.1 °F 82% 29.90 in 10.0 mi SE 12.7 mph - N/A   Overcast
2:50 AM 75.2 °F - 68.0 °F 78% 29.87 in 10.0 mi SE 10.4 mph 23.0 mph N/A   Overcast
2:53 AM 73.9 °F - 68.0 °F 82% 29.86 in 10.0 mi SE 11.5 mph 23.0 mph N/A   Overcast
3:14 AM 75.2 °F - 68.0 °F 78% 29.87 in 10.0 mi SSE 12.7 mph 19.6 mph N/A   Overcast
3:53 AM 73.9 °F - 68.0 °F 82% 29.87 in 10.0 mi SE 9.2 mph - N/A   Overcast
4:53 AM 73.9 °F - 68.0 °F 82% 29.85 in 10.0 mi SE 11.5 mph 19.6 mph N/A   Overcast
5:53 AM 73.0 °F - 68.0 °F 84% 29.84 in 10.0 mi SE 10.4 mph - N/A   Overcast
6:53 AM 73.0 °F - 68.0 °F 84% 29.83 in 10.0 mi SE 9.2 mph - N/A   Mostly Cloudy
7:53 AM 73.9 °F - 69.1 °F 85% 29.85 in 10.0 mi SE 10.4 mph - N/A   Overcast
8:53 AM 75.9 °F - 69.1 °F 79% 29.86 in 10.0 mi SSE 12.7 mph 21.9 mph N/A   Overcast
9:53 AM 77.0 °F - 69.1 °F 76% 29.86 in 10.0 mi SSE 15.0 mph 21.9 mph N/A   Overcast
10:53 AM 80.1 °F 82.9 °F 69.1 °F 69% 29.86 in 10.0 mi SSE 18.4 mph 24.2 mph N/A   Overcast
11:53 AM 81.0 °F 84.1 °F 69.1 °F 67% 29.85 in 10.0 mi South 24.2 mph 32.2 mph N/A   Overcast
12:53 PM 82.0 °F 85.9 °F 70.0 °F 67% 29.82 in 10.0 mi South 18.4 mph 27.6 mph N/A   Mostly Cloudy
1:53 PM 84.9 °F 89.4 °F 70.0 °F 61% 29.81 in 10.0 mi South 24.2 mph 34.5 mph N/A   Unknown
2:11 PM 84.2 °F 88.4 °F 69.8 °F 62% 29.80 in 10.0 mi South 20.7 mph 31.1 mph N/A   Mostly Cloudy
2:53 PM 82.9 °F 85.8 °F 68.0 °F 60% 29.80 in 10.0 mi South 21.9 mph 31.1 mph N/A   Mostly Cloudy
3:00 PM 82.4 °F 85.4 °F 68.0 °F 62% 29.80 in 10.0 mi South 20.7 mph 31.1 mph N/A   Mostly Cloudy
3:53 PM 82.0 °F 84.9 °F 68.0 °F 62% 29.79 in 10.0 mi South 19.6 mph 28.8 mph N/A   Mostly Cloudy
4:53 PM 81.0 °F 84.4 °F 70.0 °F 69% 29.77 in 10.0 mi South 16.1 mph - N/A   Mostly Cloudy
5:53 PM 80.1 °F 82.9 °F 69.1 °F 69% 29.76 in 10.0 mi South 20.7 mph 28.8 mph N/A   Mostly Cloudy
6:53 PM 79.0 °F - 69.1 °F 72% 29.77 in 10.0 mi South 17.3 mph 25.3 mph N/A   Mostly Cloudy
7:53 PM 78.1 °F - 70.0 °F 76% 29.78 in 10.0 mi South 12.7 mph 23.0 mph N/A   Overcast
8:53 PM 77.0 °F - 70.0 °F 79% 29.80 in 10.0 mi South 15.0 mph - N/A   Overcast
9:06 PM 77.0 °F - 69.8 °F 78% 29.81 in 10.0 mi South 13.8 mph - N/A   Overcast
9:53 PM 75.9 °F - 71.1 °F 85% 29.82 in 9.0 mi SSW 16.1 mph 21.9 mph 0.00 in Rain Light Rain
10:00 PM 66.2 °F - 62.6 °F 88% 29.84 in 9.0 mi WNW 20.7 mph 34.5 mph 0.00 in Rain Light Rain
10:12 PM 62.6 °F - 60.8 °F 94% 29.86 in 4.0 mi NW 13.8 mph 23.0 mph N/A Rain Heavy Rain
10:53 PM 57.9 °F - 57.0 °F 97% 29.89 in 5.0 mi NW 11.5 mph 19.6 mph 0.19 in Rain Light Rain
11:53 PM 57.0 °F - 55.9 °F 96% 29.91 in 4.0 mi NW 8.1 mph 17.3 mph 0.07 in Rain Heavy Rain